This is the latest recevied weather packets stored in our database for station/object N7CEE. If no packets are shown the sender has not sent any weather packets the latest 10 day(s).
| Time | Temp. | Humidity | Pressure | Rain* | Wind** | Luminosity | Snow |
|---|---|---|---|---|---|---|---|
| 1777846795 | 20° C | 29% | 1021.8 hPa | 0 mm | - | 701 W/m² | - |
| 1777846493 | 20.56° C | 27% | 1021.5 hPa | 0 mm | - | 658 W/m² | - |
| 1777846190 | 20.56° C | 28% | 1021.6 hPa | 0 mm | - | 629 W/m² | - |
| 1777845886 | 20.56° C | 28% | 1021.9 hPa | 0 mm | - | 640 W/m² | - |
| 1777845583 | 20.56° C | 29% | 1021.6 hPa | 0 mm | - | 653 W/m² | - |
| 1777845279 | 20.56° C | 27% | 1021.9 hPa | 0 mm | - | 669 W/m² | - |
| 1777844977 | 20° C | 27% | 1022.1 hPa | 0 mm | - | 686 W/m² | - |
| 1777844675 | 19.44° C | 30% | 1022.1 hPa | 0 mm | - | 772 W/m² | - |
| 1777844372 | 20.56° C | 30% | 1022.1 hPa | 0 mm | - | 89 W/m² | - |
| 1777844070 | 20° C | 29% | 1022.1 hPa | 0 mm | - | 763 W/m² | - |
| 1777843766 | 20° C | 31% | 1022.4 hPa | 0 mm | - | 757 W/m² | - |
| 1777843464 | 20° C | 30% | 1022.4 hPa | 0 mm | - | 399 W/m² | - |
| 1777843161 | 21.67° C | 28% | 1022.5 hPa | 0 mm | - | 762 W/m² | - |
| 1777842858 | 21.67° C | 29% | 1022.5 hPa | 0 mm | - | 796 W/m² | - |
| 1777842553 | 21.11° C | 29% | 1022.6 hPa | 0 mm | - | 809 W/m² | - |
| 1777842250 | 21.11° C | 29% | 1022.8 hPa | 0 mm | - | 795 W/m² | - |
| 1777841945 | 20.56° C | 29% | 1022.8 hPa | 0 mm | - | 826 W/m² | - |
| 1777841642 | 20° C | 28% | 1022.9 hPa | 0 mm | - | 778 W/m² | - |
| 1777841338 | 20.56° C | 28% | 1022.9 hPa | 0 mm | - | 191 W/m² | - |
| 1777841035 | 20.56° C | 26% | 1022.9 hPa | 0 mm | - | 207 W/m² | - |
| 1777840733 | 19.44° C | 29% | 1023 hPa | 0 mm | - | 861 W/m² | - |
| 1777840430 | 19.44° C | 31% | 1023.4 hPa | 0 mm | - | 164 W/m² | - |
| 1777840127 | 20.56° C | 30% | 1023.2 hPa | 0 mm | - | 860 W/m² | - |
| 1777839825 | 20.56° C | 30% | 1023.4 hPa | 0 mm | - | 144 W/m² | - |
| 1777839523 | 21.67° C | 29% | 1023.1 hPa | 0 mm | - | 151 W/m² | - |
* Rain latest hour (hover to see other rain measurements)
** Current wind speed in m/s (hover to see current wind gust speed)